DLH492 EDDF-CYVR

Flight info

Callsign DLH492
Flight time 4h 5m
Altitude 24000
Route MARUN7F/25C MARUN Y152 ARPEG/N0486F320 Z850 ABILU DCT ATPAQ DCT OMIMA DCT ATNAK DCT GUNPA/M083F320 DCT 65N010W 6730N02000W 70N030W/M083F340 72N040W 73N060W DCT MEDPA/N0477F340 DCT 71N080W 6830N09000W 65N100W 60N110W/N0473F360 55N116W DCT MERYT DCT BOOTH CANUC5
Aircraft B77W/H-SDE1E2E3FGHIJ2J3J4J5M1RWXY/LB1D1

Departure

Time 2026-05-05 15:38
Airport Frankfurt Main Airport (EDDF)

Arrival

Time 2026-05-05 19:43
Airport Vancouver International Airport (CYVR)
Time Latitude Longitude Altitude Speed Heading
2026-05-05 15:02 50.04818 8.57170 361 ft 0 kts 115°
2026-05-05 15:24 50.04821 8.57157 367 ft 3 kts 114°
2026-05-05 15:24 50.04830 8.57128 366 ft 3 kts 118°
2026-05-05 15:24 50.04839 8.57101 366 ft 3 kts 124°
2026-05-05 15:24 50.04851 8.57080 368 ft 2 kts 153°
2026-05-05 15:25 50.04856 8.57077 367 ft 1 kts 156°
2026-05-05 15:25 50.04843 8.57073 364 ft 3 kts 200°
2026-05-05 15:25 50.04826 8.57057 368 ft 3 kts 208°
2026-05-05 15:25 50.04809 8.57045 363 ft 3 kts 204°
2026-05-05 15:26 50.04791 8.57032 367 ft 3 kts 205°
2026-05-05 15:26 50.04772 8.57019 368 ft 3 kts 205°
2026-05-05 15:26 50.04754 8.57006 368 ft 3 kts 205°
2026-05-05 15:26 50.04735 8.56993 367 ft 3 kts 205°
2026-05-05 15:27 50.04717 8.56980 369 ft 3 kts 205°
2026-05-05 15:27 50.04699 8.56966 368 ft 3 kts 205°
2026-05-05 15:27 50.04680 8.56953 367 ft 3 kts 205°
2026-05-05 15:27 50.04668 8.56945 368 ft 0 kts 205°
2026-05-05 15:31 50.04663 8.56941 368 ft 4 kts 205°
2026-05-05 15:31 50.04627 8.56920 368 ft 8 kts 197°
2026-05-05 15:31 50.04565 8.56896 366 ft 10 kts 193°
2026-05-05 15:31 50.04500 8.56872 367 ft 10 kts 193°
2026-05-05 15:32 50.04436 8.56848 371 ft 10 kts 192°
2026-05-05 15:32 50.04367 8.56833 369 ft 10 kts 189°
2026-05-05 15:32 50.04300 8.56827 370 ft 10 kts 160°
2026-05-05 15:32 50.04279 8.56918 366 ft 10 kts 72°
2026-05-05 15:33 50.04309 8.57041 369 ft 15 kts 70°
2026-05-05 15:33 50.04354 8.57230 369 ft 22 kts 70°
2026-05-05 15:33 50.04408 8.57456 370 ft 22 kts 69°
2026-05-05 15:33 50.04458 8.57663 373 ft 20 kts 69°
2026-05-05 15:34 50.04505 8.57863 372 ft 17 kts 70°
2026-05-05 15:34 50.04546 8.58034 372 ft 17 kts 70°
2026-05-05 15:34 50.04584 8.58193 373 ft 15 kts 70°
2026-05-05 15:34 50.04621 8.58348 375 ft 15 kts 70°
2026-05-05 15:35 50.04650 8.58471 377 ft 10 kts 70°
2026-05-05 15:35 50.04640 8.58556 379 ft 8 kts 141°
2026-05-05 15:35 50.04615 8.58575 374 ft 0 kts 159°
2026-05-05 15:36 50.04606 8.58580 377 ft 6 kts 159°
2026-05-05 15:36 50.04559 8.58608 378 ft 7 kts 159°
2026-05-05 15:36 50.04513 8.58629 380 ft 6 kts 181°
2026-05-05 15:36 50.04488 8.58587 380 ft 5 kts 245°
2026-05-05 15:37 50.04468 8.58507 377 ft 16 kts 249°
2026-05-05 15:37 50.04360 8.58059 374 ft 80 kts 249°
2026-05-05 15:37 50.04087 8.56913 369 ft 147 kts 249°
2026-05-05 15:37 50.03668 8.55153 510 ft 185 kts 250°
2026-05-05 15:38 50.03222 8.53245 1048 ft 194 kts 250°
2026-05-05 15:38 50.02774 8.51228 1677 ft 195 kts 252°
2026-05-05 15:38 50.02629 8.49158 2252 ft 196 kts 275°
2026-05-05 15:38 50.02860 8.47081 2713 ft 197 kts 278°
2026-05-05 15:39 50.03096 8.44955 3145 ft 199 kts 277°
2026-05-05 15:39 50.03315 8.42828 3575 ft 200 kts 283°
2026-05-05 15:39 50.04058 8.40925 3784 ft 215 kts 317°
2026-05-05 15:39 50.05262 8.39553 4180 ft 218 kts 322°
2026-05-05 15:40 50.06530 8.38179 4506 ft 227 kts 322°
2026-05-05 15:40 50.07812 8.36736 5023 ft 228 kts 321°
2026-05-05 15:40 50.09091 8.35280 5482 ft 233 kts 321°
2026-05-05 15:40 50.10419 8.33721 5819 ft 244 kts 320°
2026-05-05 15:41 50.11939 8.32384 6073 ft 261 kts 342°
2026-05-05 15:41 50.13769 8.32084 6371 ft 275 kts
2026-05-05 15:41 50.15612 8.32960 6842 ft 280 kts 24°
2026-05-05 15:41 50.17419 8.34225 7429 ft 285 kts 25°
2026-05-05 15:42 50.19238 8.35457 8046 ft 291 kts 22°
2026-05-05 15:42 50.21146 8.36596 8676 ft 296 kts 20°
2026-05-05 15:42 50.23091 8.37622 9443 ft 296 kts 18°
2026-05-05 15:42 50.25073 8.38594 10091 ft 300 kts 18°
2026-05-05 15:43 50.27124 8.39576 10399 ft 318 kts 18°
2026-05-05 15:43 50.29291 8.40603 10580 ft 340 kts 18°
2026-05-05 15:43 50.31544 8.41762 11293 ft 338 kts 20°
2026-05-05 15:43 50.33743 8.42976 12195 ft 333 kts 20°
2026-05-05 15:44 50.35935 8.44200 12881 ft 334 kts 20°
2026-05-05 15:44 50.38146 8.45424 13512 ft 337 kts 19°
2026-05-05 15:44 50.40440 8.46091 13943 ft 344 kts 358°
2026-05-05 15:44 50.42830 8.45582 14523 ft 348 kts 347°
2026-05-05 15:45 50.45197 8.44654 15252 ft 350 kts 344°
2026-05-05 15:45 50.47550 8.43632 15896 ft 358 kts 343°
2026-05-05 15:45 50.49997 8.42562 16447 ft 368 kts 343°
2026-05-05 15:45 50.52497 8.41460 17025 ft 375 kts 343°
2026-05-05 15:46 50.54988 8.40360 17702 ft 376 kts 343°
2026-05-05 15:46 50.57533 8.39240 18293 ft 380 kts 343°
2026-05-05 15:46 50.60098 8.38110 18798 ft 384 kts 344°
2026-05-05 15:46 50.62734 8.37195 19280 ft 390 kts 349°
2026-05-05 15:47 50.65443 8.36489 19381 ft 407 kts 351°
2026-05-05 15:47 50.67367 8.36007 19461 ft 418 kts 350°
2026-05-05 15:47 50.71260 8.34963 19706 ft 435 kts 349°
2026-05-05 15:47 50.74239 8.34068 20029 ft 444 kts 348°
2026-05-05 15:48 50.77294 8.33102 20498 ft 449 kts 348°
2026-05-05 15:48 50.80367 8.32117 21043 ft 451 kts 348°
2026-05-05 15:48 50.83465 8.31125 21581 ft 454 kts 348°
2026-05-05 15:48 50.86542 8.30147 22045 ft 457 kts 348°
2026-05-05 15:49 50.89685 8.29152 22405 ft 460 kts 348°
2026-05-05 15:49 50.92815 8.28163 22713 ft 464 kts 348°
2026-05-05 15:49 50.95999 8.27158 23046 ft 467 kts 348°
2026-05-05 15:49 50.99218 8.26140 23414 ft 469 kts 348°
2026-05-05 15:50 51.02406 8.25131 23705 ft 471 kts 348°
2026-05-05 15:50 51.05648 8.24103 24014 ft 474 kts 348°
2026-05-05 15:50 51.08870 8.23079 24308 ft 476 kts 348°
2026-05-05 15:50 51.12141 8.22039 24597 ft 478 kts 348°
2026-05-05 15:51 51.15389 8.21004 24884 ft 480 kts 348°
2026-05-05 15:51 51.18688 8.19951 25160 ft 482 kts 348°
2026-05-05 15:51 51.21961 8.18905 25443 ft 484 kts 348°
2026-05-05 15:51 51.25285 8.17841 25723 ft 486 kts 348°
2026-05-05 15:52 51.28576 8.16787 25994 ft 488 kts 348°
2026-05-05 15:52 51.31919 8.15714 26281 ft 489 kts 347°
2026-05-05 15:52 51.35272 8.14636 26560 ft 491 kts 347°
2026-05-05 15:52 51.38652 8.13547 26763 ft 494 kts 347°
2026-05-05 15:53 51.46798 8.10919 27333 ft 499 kts 347°
2026-05-05 15:53 51.60616 8.06436 28371 ft 503 kts 346°
2026-05-05 15:53 51.74261 8.01985 29227 ft 506 kts 346°
2026-05-05 15:53 51.86523 7.97965 30410 ft 497 kts 345°
2026-05-05 15:54 51.89932 7.96841 30516 ft 500 kts 345°
2026-05-05 15:54 51.96770 7.94578 30737 ft 503 kts 345°
2026-05-05 15:54 52.00170 7.93453 30924 ft 503 kts 345°
2026-05-05 15:55 52.03608 7.92314 31168 ft 501 kts 344°
2026-05-05 15:55 52.07030 7.91181 31431 ft 499 kts 344°
2026-05-05 15:55 52.10409 7.90057 31589 ft 500 kts 344°
2026-05-05 15:55 52.13829 7.88917 31708 ft 501 kts 344°
2026-05-05 15:56 52.17246 7.87775 31799 ft 502 kts 345°
2026-05-05 15:56 52.38655 7.80594 31785 ft 503 kts 344°
2026-05-05 15:56 52.52346 7.75963 31934 ft 497 kts 344°
2026-05-05 15:57 52.65592 7.70457 31906 ft 493 kts 340°
2026-05-05 15:57 53.03663 7.53539 31893 ft 488 kts 340°
2026-05-05 15:58 53.55702 7.30000 31970 ft 484 kts 339°
2026-05-05 15:58 54.07492 7.05970 32011 ft 483 kts 339°
2026-05-05 15:59 54.59348 6.81295 31985 ft 481 kts 341°
2026-05-05 15:59 55.06515 6.56857 31952 ft 471 kts 333°
2026-05-05 16:00 55.54014 6.19707 32000 ft 467 kts 331°
2026-05-05 16:00 56.01518 5.81837 31981 ft 465 kts 330°
2026-05-05 16:01 56.48417 5.43466 32047 ft 462 kts 330°
2026-05-05 16:01 56.94925 5.04337 32024 ft 460 kts 329°
2026-05-05 16:02 57.25037 4.72529 32010 ft 452 kts 323°
2026-05-05 16:02 57.30451 4.66529 32063 ft 452 kts 323°
2026-05-05 16:03 57.35824 4.60572 32045 ft 452 kts 323°
2026-05-05 16:03 57.41237 4.54543 32025 ft 451 kts 323°
2026-05-05 16:04 57.46597 4.48548 32043 ft 450 kts 323°
2026-05-05 16:04 57.51965 4.42520 32027 ft 450 kts 322°
2026-05-05 16:05 57.57307 4.36500 32024 ft 450 kts 322°
2026-05-05 16:05 57.62633 4.30479 32038 ft 449 kts 322°
2026-05-05 16:06 57.67994 4.24396 32037 ft 447 kts 322°
2026-05-05 16:06 57.73278 4.18380 32033 ft 446 kts 322°
2026-05-05 16:07 57.77691 4.13339 32037 ft 445 kts 322°
2026-05-05 16:07 57.83841 4.06290 32041 ft 444 kts 322°
2026-05-05 16:08 57.88245 4.01223 32085 ft 445 kts 322°
2026-05-05 16:08 57.94364 3.94160 32048 ft 444 kts 322°
2026-05-05 16:09 57.98761 3.89068 32041 ft 444 kts 322°
2026-05-05 16:09 58.04001 3.82980 32046 ft 443 kts 322°
2026-05-05 16:10 58.09263 3.76845 32043 ft 443 kts 321°
2026-05-05 16:10 58.14489 3.70730 32044 ft 443 kts 321°
2026-05-05 16:11 58.19728 3.64577 32059 ft 443 kts 321°
2026-05-05 16:12 58.30168 3.52255 32049 ft 442 kts 321°
2026-05-05 16:13 58.43201 3.36748 32054 ft 441 kts 321°
2026-05-05 16:13 58.48395 3.30530 32052 ft 441 kts 321°
2026-05-05 16:14 58.58783 3.18029 32044 ft 439 kts 321°
2026-05-05 16:15 58.69083 3.05544 32049 ft 438 kts 321°
2026-05-05 16:16 58.79400 2.92947 32050 ft 439 kts 320°
2026-05-05 16:17 58.87108 2.83479 32053 ft 440 kts 320°
2026-05-05 16:18 58.94847 2.73922 32044 ft 440 kts 320°
2026-05-05 16:19 59.02577 2.64324 32070 ft 440 kts 320°
2026-05-05 16:19 59.10282 2.54711 32046 ft 436 kts 320°
2026-05-05 16:20 59.20431 2.41961 32046 ft 432 kts 320°
2026-05-05 16:22 59.33043 2.25983 32076 ft 434 kts 320°
2026-05-05 16:23 59.43183 2.13038 32046 ft 434 kts 320°
2026-05-05 16:23 59.50749 2.03319 32055 ft 433 kts 320°
2026-05-05 16:24 59.55781 1.96824 32052 ft 432 kts 319°
2026-05-05 16:25 59.63307 1.87064 32042 ft 433 kts 319°
2026-05-05 16:25 59.70844 1.77239 32048 ft 433 kts 319°
2026-05-05 16:26 59.80896 1.64051 32048 ft 432 kts 319°
2026-05-05 16:27 59.85891 1.57461 32054 ft 432 kts 319°
2026-05-05 16:27 59.90926 1.50793 32091 ft 434 kts 319°
2026-05-05 16:28 59.95942 1.44126 32056 ft 433 kts 319°
2026-05-05 16:28 60.00932 1.37472 32047 ft 433 kts 319°
2026-05-05 16:29 60.05944 1.30763 32032 ft 432 kts 319°
2026-05-05 16:29 60.10927 1.24066 32050 ft 432 kts 319°
2026-05-05 16:30 60.15898 1.17360 32053 ft 432 kts 319°
2026-05-05 16:30 60.20889 1.10600 32057 ft 433 kts 319°
2026-05-05 16:31 60.25894 1.03800 32061 ft 433 kts 319°
2026-05-05 16:31 60.30867 0.97017 32053 ft 432 kts 319°
2026-05-05 16:32 60.35861 0.90181 32051 ft 432 kts 319°
2026-05-05 16:32 60.40830 0.83352 32050 ft 432 kts 319°
2026-05-05 16:33 60.45790 0.76509 32052 ft 431 kts 319°
2026-05-05 16:33 60.50730 0.69671 32056 ft 432 kts 318°
2026-05-05 16:34 60.55695 0.62770 32045 ft 430 kts 318°
2026-05-05 16:34 60.60611 0.55911 32050 ft 429 kts 318°
2026-05-05 16:35 60.68257 0.45191 32047 ft 429 kts 318°
2026-05-05 16:35 61.02980 -0.05783 32065 ft 418 kts 309°
2026-05-05 16:36 61.09329 -0.18732 32051 ft 430 kts 309°
2026-05-05 16:36 61.32604 -0.66469 32049 ft 433 kts 309°
2026-05-05 16:37 61.66589 -1.38014 32052 ft 428 kts 309°
2026-05-05 16:37 61.99622 -2.09940 32091 ft 434 kts 310°
2026-05-05 16:38 62.18196 -2.51356 32072 ft 445 kts 309°
2026-05-05 16:38 62.40349 -3.01852 32071 ft 431 kts 309°
2026-05-05 16:39 62.53655 -3.32796 32122 ft 450 kts 310°
2026-05-05 16:39 62.61036 -3.50113 32057 ft 453 kts 310°
2026-05-05 16:40 62.94814 -4.31187 32065 ft 451 kts 309°
2026-05-05 16:40 63.28322 -5.14684 32058 ft 453 kts 309°
2026-05-05 16:41 63.61209 -5.99820 32066 ft 455 kts 309°
2026-05-05 16:41 63.93867 -6.87750 32066 ft 459 kts 309°
2026-05-05 16:42 64.26189 -7.78290 32085 ft 460 kts 308°
2026-05-05 16:42 64.58079 -8.71367 32086 ft 461 kts 307°
2026-05-05 16:43 64.89255 -9.66297 32115 ft 461 kts 307°
2026-05-05 16:43 65.19334 -10.63041 32131 ft 461 kts 306°
2026-05-05 16:44 65.48961 -11.63271 32168 ft 461 kts 306°
2026-05-05 16:44 65.77944 -12.65958 32159 ft 463 kts 305°
2026-05-05 16:45 66.06309 -13.71258 32204 ft 463 kts 304°
2026-05-05 16:45 66.34045 -14.79274 32324 ft 466 kts 304°
2026-05-05 16:46 66.61220 -15.90426 32301 ft 469 kts 303°
2026-05-05 16:46 66.87652 -17.04365 32306 ft 470 kts 302°
2026-05-05 16:47 67.13529 -18.22120 32342 ft 473 kts 300°
2026-05-05 16:47 67.38349 -19.41573 32394 ft 472 kts 301°
2026-05-05 16:48 67.63088 -20.42442 32362 ft 468 kts 311°
2026-05-05 16:48 67.79305 -20.96008 32532 ft 467 kts 310°
2026-05-05 16:48 67.91278 -21.36669 32570 ft 467 kts 311°
2026-05-05 16:49 68.13808 -22.14860 32522 ft 470 kts 310°
2026-05-05 16:49 68.45139 -23.28475 32473 ft 473 kts 308°
2026-05-05 16:50 68.75715 -24.45603 32577 ft 474 kts 307°
2026-05-05 16:50 69.05716 -25.66952 32558 ft 475 kts 306°
2026-05-05 16:51 69.34650 -26.90780 32618 ft 475 kts 305°
2026-05-05 16:51 69.62684 -28.17975 32642 ft 473 kts 304°
2026-05-05 16:52 69.89711 -29.48204 32658 ft 471 kts 302°
2026-05-05 16:52 70.16633 -30.67334 32693 ft 465 kts 308°
2026-05-05 16:53 70.46206 -31.92693 32683 ft 461 kts 306°
2026-05-05 16:53 70.74607 -33.20423 32701 ft 460 kts 305°
2026-05-05 16:54 70.97566 -34.29544 32728 ft 457 kts 304°
2026-05-05 16:54 71.24081 -35.62921 32699 ft 455 kts 303°
2026-05-05 16:55 71.49594 -36.99780 32713 ft 451 kts 302°
2026-05-05 16:55 71.73700 -38.37874 32699 ft 446 kts 301°
2026-05-05 16:56 71.96593 -39.78229 32714 ft 444 kts 300°
2026-05-05 16:56 72.12012 -41.17756 32722 ft 444 kts 291°
2026-05-05 16:57 72.24826 -42.53603 32632 ft 428 kts 290°
2026-05-05 16:57 72.29219 -43.03098 32834 ft 440 kts 290°
2026-05-05 16:58 72.32066 -43.36151 32702 ft 436 kts 290°
2026-05-05 16:58 72.35807 -43.80681 32611 ft 425 kts 289°
2026-05-05 16:58 72.38707 -44.16256 32698 ft 417 kts 289°
2026-05-05 16:59 72.49898 -45.62301 32810 ft 428 kts 287°
2026-05-05 16:59 72.52791 -46.03078 32790 ft 420 kts 287°
2026-05-05 17:00 72.57864 -46.77435 32672 ft 411 kts 285°
2026-05-05 17:00 72.62690 -47.52668 32771 ft 418 kts 284°
2026-05-05 17:00 72.65761 -48.03632 32749 ft 428 kts 284°
2026-05-05 17:01 72.67603 -48.35307 32694 ft 429 kts 283°
2026-05-05 17:01 72.70398 -48.85091 32612 ft 406 kts 283°
2026-05-05 17:02 72.72491 -49.23854 32608 ft 421 kts 283°
2026-05-05 17:02 72.73502 -49.43189 33000 ft 425 kts 282°
2026-05-05 17:02 72.74090 -49.54641 33487 ft 422 kts 282°
2026-05-05 17:03 72.74585 -49.64394 33891 ft 420 kts 282°
2026-05-05 17:03 72.75073 -49.74084 34277 ft 418 kts 282°
2026-05-05 17:03 72.75557 -49.83784 34540 ft 420 kts 282°
2026-05-05 17:03 72.76436 -50.01630 34579 ft 426 kts 281°
2026-05-05 17:04 72.78339 -50.41501 34566 ft 426 kts 281°
2026-05-05 17:04 72.80100 -50.80109 34552 ft 413 kts 281°
2026-05-05 17:05 72.81765 -51.18175 34538 ft 405 kts 280°
2026-05-05 17:05 72.83354 -51.56148 34546 ft 414 kts 279°
2026-05-05 17:06 72.84913 -51.95373 34580 ft 422 kts 279°
2026-05-05 17:06 72.86395 -52.34625 34557 ft 415 kts 278°
2026-05-05 17:07 72.87769 -52.72994 34541 ft 408 kts 278°
2026-05-05 17:07 72.89078 -53.11604 34509 ft 414 kts 277°
2026-05-05 17:08 72.90329 -53.50780 34478 ft 419 kts 277°
2026-05-05 17:08 72.91497 -53.89813 34411 ft 410 kts 276°
2026-05-05 17:09 72.92576 -54.28079 34421 ft 405 kts 275°
2026-05-05 17:09 72.93571 -54.66385 34428 ft 410 kts 275°
2026-05-05 17:10 72.94519 -55.05549 34410 ft 419 kts 275°
2026-05-05 17:10 72.95402 -55.45251 34400 ft 416 kts 275°
2026-05-05 17:11 72.96197 -55.84149 34373 ft 409 kts 273°
2026-05-05 17:11 72.96897 -56.22526 34401 ft 405 kts 273°
2026-05-05 17:12 72.97532 -56.60999 34407 ft 404 kts 272°
2026-05-05 17:12 72.98091 -56.99205 34430 ft 404 kts 272°
2026-05-05 17:13 72.98585 -57.37969 34443 ft 415 kts 271°
2026-05-05 17:13 72.99015 -57.77778 34432 ft 421 kts 271°
2026-05-05 17:14 72.99367 -58.17370 34422 ft 413 kts 271°
2026-05-05 17:14 72.99641 -58.56173 34418 ft 404 kts 270°
2026-05-05 17:15 72.99831 -58.94791 34459 ft 413 kts 269°
2026-05-05 17:15 72.99957 -59.34341 34460 ft 420 kts 269°
2026-05-05 17:16 73.00009 -59.74124 34406 ft 414 kts 269°
2026-05-05 17:16 72.99698 -60.13010 34447 ft 411 kts 263°
2026-05-05 17:17 72.98647 -60.52275 34460 ft 421 kts 263°
2026-05-05 17:17 72.97531 -60.92150 34441 ft 416 kts 263°
2026-05-05 17:18 72.96378 -61.30707 34445 ft 405 kts 262°
2026-05-05 17:18 72.95159 -61.68985 34475 ft 413 kts 262°
2026-05-05 17:19 72.93819 -62.08540 34457 ft 424 kts 261°
2026-05-05 17:19 72.92405 -62.48088 34449 ft 418 kts 261°
2026-05-05 17:20 72.90934 -62.87046 34461 ft 410 kts 261°
2026-05-05 17:20 72.89412 -63.25314 34476 ft 410 kts 260°
2026-05-05 17:21 72.87796 -63.64046 34461 ft 419 kts 260°
2026-05-05 17:22 72.85190 -64.23043 34458 ft 419 kts 259°
2026-05-05 17:22 72.83389 -64.61588 34465 ft 415 kts 259°
2026-05-05 17:23 72.81494 -65.00470 34466 ft 423 kts 258°
2026-05-05 17:23 72.79503 -65.39708 34465 ft 424 kts 258°
2026-05-05 17:24 72.77452 -65.78587 34462 ft 415 kts 257°
2026-05-05 17:24 72.75359 -66.16737 34476 ft 418 kts 257°
2026-05-05 17:25 72.73145 -66.55660 34473 ft 428 kts 256°
2026-05-05 17:25 72.70824 -66.95068 34454 ft 428 kts 256°
2026-05-05 17:26 72.68473 -67.33643 34456 ft 416 kts 255°
2026-05-05 17:26 72.66035 -67.71885 34461 ft 422 kts 253°
2026-05-05 17:27 72.62442 -68.09662 34479 ft 431 kts 250°
2026-05-05 17:27 72.59131 -68.43569 34368 ft 429 kts 250°
2026-05-05 17:28 72.56188 -68.73241 34456 ft 418 kts 249°
2026-05-05 17:28 72.52472 -69.09890 34475 ft 423 kts 248°
2026-05-05 17:29 72.48587 -69.47368 34464 ft 435 kts 248°
2026-05-05 17:29 72.44581 -69.85195 34454 ft 433 kts 248°
2026-05-05 17:30 72.40569 -70.22259 34468 ft 423 kts 248°
2026-05-05 17:30 72.36519 -70.58836 34478 ft 428 kts 247°
2026-05-05 17:31 72.32322 -70.95957 34462 ft 438 kts 246°
2026-05-05 17:31 72.28002 -71.33407 34442 ft 435 kts 246°
2026-05-05 17:32 72.23690 -71.70013 34453 ft 427 kts 246°
2026-05-05 17:32 72.19345 -72.06118 34464 ft 432 kts 245°
2026-05-05 17:33 72.14813 -72.43043 34442 ft 443 kts 245°
2026-05-05 17:33 72.10196 -72.79955 34439 ft 436 kts 245°
2026-05-05 17:34 72.05581 -73.16101 34445 ft 428 kts 244°
2026-05-05 17:34 72.00957 -73.51598 34461 ft 436 kts 244°
2026-05-05 17:35 71.96077 -73.88368 34464 ft 448 kts 244°
2026-05-05 17:35 71.91138 -74.24910 34440 ft 441 kts 243°
2026-05-05 17:36 71.86231 -74.60510 34425 ft 433 kts 243°
2026-05-05 17:36 71.81268 -74.95829 34417 ft 441 kts 242°
2026-05-05 17:37 71.76114 -75.31864 34420 ft 451 kts 242°
2026-05-05 17:37 71.70848 -75.68033 34361 ft 445 kts 242°
2026-05-05 17:38 71.65628 -76.03228 34383 ft 435 kts 242°
2026-05-05 17:38 71.60351 -76.38137 34403 ft 447 kts 241°
2026-05-05 17:39 71.54879 -76.73744 34388 ft 454 kts 241°
2026-05-05 17:39 71.49332 -77.09213 34378 ft 447 kts 240°
2026-05-05 17:40 71.44734 -77.38138 34324 ft 440 kts 240°
2026-05-05 17:40 71.39225 -77.72236 34356 ft 441 kts 240°
2026-05-05 17:41 71.33557 -78.06730 34355 ft 450 kts 239°
2026-05-05 17:41 71.27728 -78.41633 34296 ft 451 kts 239°
2026-05-05 17:42 71.22920 -78.69987 34339 ft 443 kts 239°
2026-05-05 17:42 71.17104 -79.03739 34325 ft 442 kts 239°
2026-05-05 17:43 71.11254 -79.37155 34319 ft 443 kts 238°
2026-05-05 17:43 71.05317 -79.70535 34345 ft 444 kts 238°
2026-05-05 17:44 70.99301 -80.03782 34341 ft 447 kts 237°
2026-05-05 17:44 70.92811 -80.36429 34352 ft 450 kts 236°
2026-05-05 17:45 70.86204 -80.69095 34318 ft 454 kts 236°
2026-05-05 17:45 70.79540 -81.01728 34316 ft 455 kts 235°
2026-05-05 17:46 70.72793 -81.34260 34338 ft 456 kts 235°
2026-05-05 17:46 70.65969 -81.66666 34304 ft 458 kts 234°
2026-05-05 17:47 70.59037 -81.99086 34310 ft 458 kts 234°
2026-05-05 17:47 70.52096 -82.31062 34307 ft 458 kts 234°
2026-05-05 17:48 70.45093 -82.62850 34304 ft 458 kts 234°
2026-05-05 17:48 70.38039 -82.94397 34306 ft 458 kts 233°
2026-05-05 17:49 70.30927 -83.25740 34302 ft 459 kts 233°
2026-05-05 17:49 70.23714 -83.57074 34308 ft 459 kts 233°
2026-05-05 17:50 70.16486 -83.88015 34315 ft 460 kts 233°
2026-05-05 17:50 70.09164 -84.18915 34299 ft 461 kts 232°
2026-05-05 17:51 70.01789 -84.49596 34296 ft 462 kts 232°
2026-05-05 17:51 69.94308 -84.80281 34290 ft 463 kts 232°
2026-05-05 17:52 69.86797 -85.10656 34292 ft 464 kts 232°
2026-05-05 17:52 69.79236 -85.40804 34277 ft 464 kts 231°
2026-05-05 17:53 69.71542 -85.71057 34273 ft 465 kts 231°
2026-05-05 17:53 69.63845 -86.00904 34278 ft 466 kts 231°
2026-05-05 17:54 69.56055 -86.30696 34266 ft 467 kts 231°
2026-05-05 17:54 69.48203 -86.60315 34265 ft 468 kts 231°
2026-05-05 17:55 69.40309 -86.89690 34271 ft 468 kts 230°
2026-05-05 17:55 69.32364 -87.18854 34265 ft 469 kts 230°
2026-05-05 17:56 69.24330 -87.47947 34266 ft 470 kts 230°
2026-05-05 17:56 69.16205 -87.76980 34265 ft 471 kts 230°
2026-05-05 17:57 69.08077 -88.05636 34270 ft 471 kts 230°
2026-05-05 17:57 68.99849 -88.34259 34271 ft 472 kts 230°
2026-05-05 17:58 68.91570 -88.62679 34272 ft 473 kts 230°
2026-05-05 17:58 68.83244 -88.90892 34265 ft 474 kts 229°
2026-05-05 17:59 68.74842 -89.18990 34264 ft 474 kts 229°
2026-05-05 17:59 68.66410 -89.46823 34264 ft 474 kts 229°
2026-05-05 18:00 68.57910 -89.74527 34260 ft 474 kts 228°
2026-05-05 18:00 68.49437 -90.01928 34275 ft 474 kts 230°
2026-05-05 18:01 68.41514 -90.30539 34280 ft 474 kts 231°
2026-05-05 18:01 68.33532 -90.59031 34285 ft 475 kts 231°
2026-05-05 18:02 68.25479 -90.87331 34278 ft 475 kts 231°
2026-05-05 18:02 68.17369 -91.15472 34268 ft 476 kts 231°
2026-05-05 18:03 68.09191 -91.43484 34274 ft 477 kts 230°
2026-05-05 18:03 68.02050 -91.67647 34277 ft 478 kts 231°
2026-05-05 18:04 67.97925 -91.81490 34270 ft 478 kts 230°
2026-05-05 18:04 67.93759 -91.95380 34276 ft 478 kts 230°
2026-05-05 18:05 67.89611 -92.09121 34275 ft 479 kts 230°
2026-05-05 18:05 67.85420 -92.22913 34271 ft 480 kts 230°
2026-05-05 18:06 67.81233 -92.36606 34277 ft 480 kts 230°
2026-05-05 18:06 67.77007 -92.50342 34272 ft 480 kts 230°
2026-05-05 18:07 67.72791 -92.63957 34278 ft 480 kts 230°
2026-05-05 18:07 67.68567 -92.77511 34277 ft 480 kts 230°
2026-05-05 18:08 67.64326 -92.91038 34269 ft 480 kts 230°
2026-05-05 18:08 67.60072 -93.04523 34282 ft 481 kts 230°
2026-05-05 18:09 67.55780 -93.18041 34278 ft 481 kts 230°
2026-05-05 18:09 67.51493 -93.31461 34278 ft 482 kts 230°
2026-05-05 18:10 67.47189 -93.44850 34277 ft 482 kts 230°
2026-05-05 18:10 67.42849 -93.58267 34279 ft 483 kts 230°
2026-05-05 18:11 67.38523 -93.71555 34285 ft 483 kts 230°
2026-05-05 18:11 67.34173 -93.84838 34277 ft 483 kts 230°
2026-05-05 18:12 67.29796 -93.98126 34278 ft 483 kts 229°
2026-05-05 18:12 67.25434 -94.11284 34281 ft 483 kts 229°
2026-05-05 18:13 67.21028 -94.24494 34275 ft 483 kts 229°
2026-05-05 18:13 67.16643 -94.37559 34279 ft 483 kts 229°
2026-05-05 18:14 67.12260 -94.50540 34277 ft 483 kts 229°
2026-05-05 18:14 67.07844 -94.63540 34276 ft 484 kts 229°
2026-05-05 18:15 67.03395 -94.76561 34277 ft 484 kts 229°
2026-05-05 18:15 66.98947 -94.89497 34277 ft 485 kts 229°
2026-05-05 18:16 66.94489 -95.02386 34278 ft 485 kts 229°
2026-05-05 18:16 66.90026 -95.15213 34280 ft 485 kts 229°
2026-05-05 18:17 66.85536 -95.28040 34277 ft 485 kts 229°
2026-05-05 18:17 66.81040 -95.40806 34278 ft 484 kts 229°
2026-05-05 18:18 66.76554 -95.53472 34280 ft 485 kts 229°
2026-05-05 18:18 66.72028 -95.66175 34281 ft 485 kts 229°
2026-05-05 18:19 66.67502 -95.78799 34293 ft 485 kts 228°
2026-05-05 18:19 66.63215 -95.91930 34289 ft 482 kts 236°
2026-05-05 18:20 66.58845 -96.04660 34301 ft 484 kts 225°
2026-05-05 18:20 66.54064 -96.16567 34298 ft 487 kts 226°
2026-05-05 18:21 66.49317 -96.28818 34286 ft 488 kts 227°
2026-05-05 18:21 66.34102 -96.69739 34306 ft 491 kts 228°
2026-05-05 18:22 66.15341 -97.19164 34286 ft 494 kts 228°
2026-05-05 18:22 65.96284 -97.68220 34299 ft 493 kts 227°
2026-05-05 18:23 65.77279 -98.16037 34311 ft 492 kts 226°
2026-05-05 18:23 65.58079 -98.63266 34295 ft 491 kts 227°
2026-05-05 18:24 65.47813 -98.88091 34308 ft 491 kts 226°
2026-05-05 18:24 65.42971 -98.99697 34311 ft 493 kts 226°
2026-05-05 18:25 65.38085 -99.11346 34318 ft 497 kts 226°
2026-05-05 18:25 65.33992 -99.21053 34309 ft 499 kts 226°
2026-05-05 18:26 65.29030 -99.32759 34300 ft 499 kts 226°
2026-05-05 18:26 65.24099 -99.44335 34315 ft 498 kts 226°
2026-05-05 18:27 65.19137 -99.55915 34318 ft 498 kts 226°
2026-05-05 18:27 65.14197 -99.67382 34314 ft 497 kts 226°
2026-05-05 18:28 65.03996 -99.90871 34304 ft 496 kts 226°
2026-05-05 18:28 64.85061 -100.37864 34319 ft 494 kts 229°
2026-05-05 18:29 64.66132 -100.84953 34333 ft 494 kts 228°
2026-05-05 18:29 64.47177 -101.31088 34337 ft 494 kts 228°
2026-05-05 18:30 64.28092 -101.76558 34356 ft 494 kts 227°
2026-05-05 18:30 64.08915 -102.21290 34378 ft 493 kts 227°
2026-05-05 18:31 63.89521 -102.65594 34352 ft 494 kts 227°
2026-05-05 18:31 63.69908 -103.09477 34366 ft 495 kts 227°
2026-05-05 18:32 63.50183 -103.52712 34385 ft 495 kts 227°
2026-05-05 18:32 63.30368 -103.95265 34362 ft 497 kts 226°
2026-05-05 18:33 63.10344 -104.37420 34396 ft 498 kts 226°
2026-05-05 18:33 62.90107 -104.79172 34372 ft 499 kts 226°
2026-05-05 18:34 62.69737 -105.20376 34370 ft 500 kts 226°
2026-05-05 18:34 62.49202 -105.61102 34356 ft 501 kts 225°
2026-05-05 18:35 62.28431 -106.01501 34389 ft 503 kts 225°
2026-05-05 18:35 62.07579 -106.41280 34396 ft 504 kts 225°
2026-05-05 18:36 61.86404 -106.80901 34407 ft 507 kts 225°
2026-05-05 18:36 61.65055 -107.20093 34371 ft 511 kts 225°
2026-05-05 18:37 61.43524 -107.58871 34338 ft 513 kts 225°
2026-05-05 18:37 61.21631 -107.97561 34342 ft 516 kts 225°
2026-05-05 18:38 60.99617 -108.35734 34282 ft 519 kts 225°
2026-05-05 18:38 60.77405 -108.73537 34347 ft 522 kts 225°
2026-05-05 18:39 60.54741 -109.11391 34379 ft 526 kts 225°
2026-05-05 18:39 60.42226 -109.31992 34406 ft 527 kts 226°
2026-05-05 18:40 60.26967 -109.56833 34417 ft 531 kts 225°
2026-05-05 18:40 60.12888 -109.79484 34342 ft 534 kts 225°
2026-05-05 18:41 60.09977 -109.84127 34521 ft 528 kts 225°
2026-05-05 18:41 60.07135 -109.88656 34781 ft 526 kts 225°
2026-05-05 18:41 60.04268 -109.93223 35059 ft 526 kts 225°
2026-05-05 18:41 60.01384 -109.97806 35334 ft 526 kts 224°
2026-05-05 18:42 59.98530 -110.02290 35620 ft 527 kts 223°
2026-05-05 18:42 59.95568 -110.06649 35949 ft 527 kts 221°
2026-05-05 18:42 59.92596 -110.10818 36290 ft 526 kts 220°
2026-05-05 18:42 59.89570 -110.14981 36333 ft 530 kts 219°
2026-05-05 18:43 59.83459 -110.23376 36346 ft 531 kts 220°
2026-05-05 18:43 59.77414 -110.31760 36334 ft 529 kts 221°
2026-05-05 18:44 59.71399 -110.40141 36328 ft 528 kts 221°
2026-05-05 18:44 59.65418 -110.48450 36329 ft 527 kts 220°
2026-05-05 18:45 59.59393 -110.56778 36328 ft 527 kts 220°
2026-05-05 18:45 59.53380 -110.65044 36314 ft 527 kts 221°
2026-05-05 18:46 59.47367 -110.73274 36323 ft 529 kts 221°
2026-05-05 18:46 59.41295 -110.81548 36333 ft 530 kts 221°
2026-05-05 18:47 59.35225 -110.89783 36344 ft 532 kts 220°
2026-05-05 18:47 59.29145 -110.97993 36335 ft 534 kts 220°
2026-05-05 18:48 59.22998 -111.06257 36320 ft 534 kts 221°
2026-05-05 18:48 59.16892 -111.14427 36334 ft 534 kts 221°
2026-05-05 18:49 59.10752 -111.22609 36342 ft 533 kts 220°
2026-05-05 18:49 59.04645 -111.30710 36331 ft 533 kts 220°
2026-05-05 18:50 58.98542 -111.38772 36335 ft 532 kts 220°
2026-05-05 18:50 58.92388 -111.46866 36306 ft 531 kts 221°
2026-05-05 18:51 58.86293 -111.54847 36323 ft 530 kts 220°
2026-05-05 18:51 58.80156 -111.62848 36335 ft 530 kts 220°
2026-05-05 18:52 58.74039 -111.70789 36336 ft 530 kts 220°
2026-05-05 18:52 58.67925 -111.78693 36341 ft 530 kts 220°
2026-05-05 18:53 58.61824 -111.86545 36302 ft 530 kts 221°
2026-05-05 18:53 58.55681 -111.94417 36340 ft 530 kts 220°
2026-05-05 18:54 58.49572 -112.02214 36329 ft 530 kts 220°
2026-05-05 18:54 58.43402 -112.10053 36331 ft 531 kts 220°
2026-05-05 18:55 58.37266 -112.17818 36321 ft 531 kts 220°
2026-05-05 18:55 58.31073 -112.25619 36274 ft 531 kts 221°
2026-05-05 18:56 58.24925 -112.33329 36305 ft 531 kts 220°
2026-05-05 18:56 58.18765 -112.41025 36321 ft 531 kts 220°
2026-05-05 18:57 58.12588 -112.48711 36298 ft 532 kts 220°
2026-05-05 18:57 58.06367 -112.56417 36280 ft 533 kts 220°
2026-05-05 18:58 58.00183 -112.64044 36236 ft 532 kts 220°
2026-05-05 18:58 57.93968 -112.71675 36269 ft 531 kts 220°
2026-05-05 18:59 57.87784 -112.79241 36266 ft 532 kts 220°
2026-05-05 18:59 57.81586 -112.86791 36260 ft 532 kts 220°
2026-05-05 19:00 57.75346 -112.94361 36259 ft 532 kts 220°
2026-05-05 19:00 57.69146 -113.01849 36228 ft 532 kts 220°
2026-05-05 19:01 57.60577 -113.12150 36254 ft 533 kts 220°
2026-05-05 19:01 57.10479 -113.71237 36274 ft 539 kts 220°
2026-05-05 19:02 56.59285 -114.29654 36260 ft 542 kts 219°
2026-05-05 19:02 56.07889 -114.86420 36254 ft 539 kts 220°
2026-05-05 19:03 55.56780 -115.41145 36212 ft 536 kts 219°
2026-05-05 19:03 55.05656 -115.94224 36233 ft 534 kts 219°
2026-05-05 19:04 54.56954 -116.47908 36201 ft 528 kts 220°
2026-05-05 19:04 54.07161 -117.01685 36220 ft 527 kts 220°
2026-05-05 19:05 53.57456 -117.53931 36167 ft 529 kts 219°
2026-05-05 19:05 53.07151 -118.05314 36128 ft 528 kts 218°
2026-05-05 19:06 52.76715 -118.35729 36062 ft 525 kts 218°
2026-05-05 19:06 52.60580 -118.51639 36074 ft 522 kts 217°
2026-05-05 19:07 52.51424 -118.60625 36120 ft 518 kts 217°
2026-05-05 19:07 52.36350 -118.75297 36089 ft 517 kts 217°
2026-05-05 19:08 52.30054 -118.81400 36085 ft 518 kts 217°
2026-05-05 19:08 52.23877 -118.87350 36104 ft 516 kts 216°
2026-05-05 19:09 52.17707 -118.93283 36128 ft 517 kts 216°
2026-05-05 19:09 52.11463 -118.99258 36107 ft 518 kts 217°
2026-05-05 19:10 52.05245 -119.05211 36085 ft 521 kts 216°
2026-05-05 19:10 51.94975 -119.14983 36033 ft 521 kts 216°
2026-05-05 19:11 51.75519 -119.33353 36046 ft 522 kts 216°
2026-05-05 19:11 51.63666 -119.44437 36149 ft 518 kts 216°
2026-05-05 19:12 51.58569 -119.49192 36044 ft 521 kts 216°
2026-05-05 19:12 51.37650 -119.68575 36042 ft 521 kts 215°
2026-05-05 19:12 51.23107 -119.81915 36038 ft 521 kts 216°
2026-05-05 19:13 51.16801 -119.87672 36018 ft 520 kts 215°
2026-05-05 19:13 51.10550 -119.93355 36011 ft 517 kts 215°
2026-05-05 19:14 51.04283 -119.99047 36009 ft 516 kts 214°
2026-05-05 19:14 50.98061 -120.04671 36016 ft 517 kts 215°
2026-05-05 19:15 50.91781 -120.10335 36002 ft 516 kts 215°
2026-05-05 19:15 50.85558 -120.15926 35994 ft 516 kts 215°
2026-05-05 19:16 50.79293 -120.21539 36001 ft 516 kts 215°
2026-05-05 19:16 50.56103 -120.42168 35930 ft 516 kts 214°
2026-05-05 19:17 50.10880 -120.81736 35973 ft 510 kts 214°
2026-05-05 19:17 49.95144 -120.96455 35890 ft 492 kts 230°
2026-05-05 19:18 49.90873 -121.04436 35975 ft 476 kts 245°
2026-05-05 19:18 49.87521 -121.13401 35975 ft 482 kts 246°
2026-05-05 19:19 49.85841 -121.17911 35657 ft 479 kts 246°
2026-05-05 19:19 49.84174 -121.22333 35142 ft 476 kts 245°
2026-05-05 19:19 49.82508 -121.26713 34662 ft 472 kts 245°
2026-05-05 19:19 49.80835 -121.31079 34176 ft 468 kts 245°
2026-05-05 19:20 49.79174 -121.35407 33681 ft 464 kts 245°
2026-05-05 19:20 49.77538 -121.39651 33110 ft 461 kts 244°
2026-05-05 19:20 49.75892 -121.43911 32535 ft 457 kts 244°
2026-05-05 19:20 49.74265 -121.48117 32072 ft 453 kts 244°
2026-05-05 19:21 49.72666 -121.52243 31577 ft 450 kts 244°
2026-05-05 19:21 49.71056 -121.56406 31064 ft 447 kts 244°
2026-05-05 19:21 49.69478 -121.60478 30611 ft 445 kts 244°
2026-05-05 19:21 49.67885 -121.64581 30120 ft 443 kts 244°
2026-05-05 19:22 49.66299 -121.68654 29608 ft 441 kts 244°
2026-05-05 19:22 49.64717 -121.72710 29009 ft 439 kts 244°
2026-05-05 19:22 49.63146 -121.76736 28470 ft 436 kts 244°
2026-05-05 19:22 49.61600 -121.80687 27961 ft 433 kts 244°
2026-05-05 19:23 49.60035 -121.84679 27431 ft 431 kts 244°
2026-05-05 19:23 49.58499 -121.88594 26925 ft 428 kts 244°
2026-05-05 19:23 49.56961 -121.92510 26433 ft 425 kts 244°
2026-05-05 19:23 49.55429 -121.96408 25955 ft 423 kts 244°
2026-05-05 19:24 49.53903 -122.00286 25463 ft 421 kts 243°
2026-05-05 19:24 49.52399 -122.04101 24977 ft 419 kts 244°
2026-05-05 19:24 49.50871 -122.07939 24582 ft 418 kts 243°
2026-05-05 19:24 49.49337 -122.11754 24060 ft 419 kts 243°
2026-05-05 19:25 49.47799 -122.15566 23616 ft 418 kts 243°
2026-05-05 19:25 49.46271 -122.19365 23075 ft 417 kts 243°
2026-05-05 19:25 49.44784 -122.23113 22562 ft 415 kts 243°
2026-05-05 19:25 49.43292 -122.26892 22040 ft 413 kts 243°
2026-05-05 19:26 49.41803 -122.30649 21525 ft 411 kts 243°
2026-05-05 19:26 49.40306 -122.34395 20962 ft 408 kts 243°
2026-05-05 19:26 49.38835 -122.38092 20454 ft 407 kts 243°
2026-05-05 19:26 49.37365 -122.41783 19844 ft 409 kts 243°
2026-05-05 19:27 49.35867 -122.45542 19175 ft 412 kts 243°
2026-05-05 19:27 49.34365 -122.49302 18486 ft 416 kts 242°
2026-05-05 19:27 49.32840 -122.53105 17729 ft 419 kts 242°
2026-05-05 19:27 49.31326 -122.56872 16996 ft 421 kts 242°
2026-05-05 19:28 49.29788 -122.60695 16229 ft 414 kts 241°
2026-05-05 19:28 49.28330 -122.64343 15478 ft 397 kts 243°
2026-05-05 19:28 49.27310 -122.68097 14723 ft 377 kts 259°
2026-05-05 19:28 49.26766 -122.71945 14046 ft 364 kts 261°
2026-05-05 19:29 49.26242 -122.75681 13281 ft 354 kts 260°
2026-05-05 19:29 49.25693 -122.79296 12514 ft 345 kts 259°
2026-05-05 19:29 49.25126 -122.82848 11763 ft 338 kts 258°
2026-05-05 19:29 49.24574 -122.86250 11157 ft 327 kts 258°
2026-05-05 19:30 49.24077 -122.89579 10707 ft 311 kts 265°
2026-05-05 19:30 49.24181 -122.92667 10455 ft 291 kts 284°
2026-05-05 19:30 49.24605 -122.95566 10238 ft 285 kts 283°
2026-05-05 19:30 49.24995 -122.98533 10005 ft 282 kts 283°
2026-05-05 19:31 49.25370 -123.01496 9789 ft 281 kts 282°
2026-05-05 19:31 49.25733 -123.04393 9472 ft 280 kts 282°
2026-05-05 19:31 49.26102 -123.07355 8993 ft 284 kts 282°
2026-05-05 19:31 49.26462 -123.10270 8688 ft 282 kts 282°
2026-05-05 19:32 49.26823 -123.13194 8408 ft 279 kts 282°
2026-05-05 19:32 49.27187 -123.16110 8124 ft 276 kts 282°
2026-05-05 19:32 49.27544 -123.18969 7858 ft 273 kts 282°
2026-05-05 19:32 49.27895 -123.21778 7584 ft 270 kts 281°
2026-05-05 19:33 49.28248 -123.24598 7297 ft 267 kts 281°
2026-05-05 19:33 49.28592 -123.27384 7038 ft 264 kts 281°
2026-05-05 19:33 49.28934 -123.30135 6773 ft 261 kts 281°
2026-05-05 19:33 49.29267 -123.32820 6542 ft 257 kts 281°
2026-05-05 19:34 49.29598 -123.35501 6287 ft 254 kts 281°
2026-05-05 19:34 49.29925 -123.38155 6026 ft 251 kts 281°
2026-05-05 19:34 49.30242 -123.40737 5790 ft 247 kts 281°
2026-05-05 19:35 49.30873 -123.45876 5349 ft 241 kts 281°
2026-05-05 19:35 49.31178 -123.48368 5203 ft 239 kts 281°
2026-05-05 19:35 49.31483 -123.50872 5016 ft 239 kts 281°
2026-05-05 19:35 49.31786 -123.53392 4759 ft 240 kts 280°
2026-05-05 19:36 49.31952 -123.55904 4456 ft 240 kts 265°
2026-05-05 19:36 49.31468 -123.58339 4253 ft 240 kts 239°
2026-05-05 19:36 49.30415 -123.60298 4212 ft 232 kts 221°
2026-05-05 19:36 49.29078 -123.61615 4091 ft 228 kts 200°
2026-05-05 19:37 49.27540 -123.61977 3920 ft 226 kts 173°
2026-05-05 19:37 49.26094 -123.61158 3728 ft 227 kts 141°
2026-05-05 19:37 49.25154 -123.59245 3534 ft 226 kts 109°
2026-05-05 19:37 49.24701 -123.56949 3334 ft 225 kts 105°
2026-05-05 19:38 49.24303 -123.54605 3150 ft 228 kts 102°
2026-05-05 19:38 49.24064 -123.52258 2986 ft 223 kts 98°
2026-05-05 19:38 49.23856 -123.49951 2925 ft 211 kts 98°
2026-05-05 19:38 49.23665 -123.47755 2901 ft 205 kts 98°
2026-05-05 19:39 49.23435 -123.45640 2832 ft 201 kts 100°
2026-05-05 19:39 49.23198 -123.43557 2665 ft 196 kts 101°
2026-05-05 19:39 49.22969 -123.41533 2499 ft 190 kts 101°
2026-05-05 19:39 49.22738 -123.39595 2345 ft 184 kts 101°
2026-05-05 19:40 49.22510 -123.37692 2144 ft 178 kts 102°
2026-05-05 19:40 49.22288 -123.35840 2006 ft 173 kts 101°
2026-05-05 19:40 49.22083 -123.34047 1812 ft 168 kts 101°
2026-05-05 19:40 49.21908 -123.32359 1553 ft 157 kts 101°
2026-05-05 19:41 49.21734 -123.30736 1351 ft 151 kts 103°
2026-05-05 19:41 49.21553 -123.29178 1184 ft 145 kts 103°
2026-05-05 19:41 49.21376 -123.27681 952 ft 146 kts 103°
2026-05-05 19:41 49.21202 -123.26125 786 ft 150 kts 102°
2026-05-05 19:42 49.21031 -123.24575 605 ft 148 kts 100°
2026-05-05 19:42 49.20847 -123.23014 481 ft 148 kts 101°
2026-05-05 19:42 49.20681 -123.21526 255 ft 139 kts 102°
2026-05-05 19:42 49.20517 -123.20066 60 ft 141 kts 101°
2026-05-05 19:43 49.20355 -123.18660 27 ft 119 kts 98°
2026-05-05 19:43 49.20243 -123.17672 24 ft 75 kts 99°
2026-05-05 19:43 49.20178 -123.17114 24 ft 33 kts 101°
2026-05-05 19:43 49.20072 -123.16829 26 ft 23 kts 130°
2026-05-05 19:44 49.19999 -123.16695 25 ft 14 kts 129°
2026-05-05 19:44 49.19953 -123.16613 25 ft 6 kts 141°
2026-05-05 19:44 49.19923 -123.16632 24 ft 6 kts 230°
2026-05-05 19:44 49.19920 -123.16703 23 ft 8 kts 279°
2026-05-05 19:45 49.19931 -123.16808 23 ft 13 kts 279°
2026-05-05 19:45 49.19946 -123.16951 24 ft 14 kts 279°
2026-05-05 19:45 49.19963 -123.17097 24 ft 15 kts 279°
2026-05-05 19:45 49.19980 -123.17252 22 ft 15 kts 279°
2026-05-05 19:46 49.19997 -123.17405 24 ft 15 kts 279°
2026-05-05 19:46 49.20014 -123.17554 24 ft 14 kts 280°
2026-05-05 19:46 49.20033 -123.17706 25 ft 14 kts 281°
2026-05-05 19:46 49.20029 -123.17813 26 ft 9 kts 230°
2026-05-05 19:47 49.19985 -123.17876 24 ft 8 kts 249°
2026-05-05 19:47 49.19988 -123.17945 26 ft 5 kts 280°
2026-05-05 19:47 49.19988 -123.17949 25 ft 0 kts 280°
2026-05-05 19:47 49.19991 -123.17976 25 ft 5 kts 280°
2026-05-05 19:48 49.19974 -123.18019 23 ft 5 kts 208°
2026-05-05 19:48 49.19943 -123.18022 22 ft 1 kts 181°
2026-05-05 19:48 49.19932 -123.18023 22 ft 2 kts 182°
2026-05-05 19:48 49.19925 -123.18023 22 ft 1 kts 183°
2026-05-05 19:49 49.19923 -123.18023 25 ft 0 kts 183°